GSAT 6

导读

GSAT 6是印度空间研究组织(ISRO)研制的静止轨道通信卫星,于2015年8月27日成功发射。该卫星配备了S波段大型可展开天线,主要面向军事移动通信与民生通信服务,支持手持终端通信,可提升印度偏远区域的通信覆盖能力。作为印度国产GSAT系列通信卫星的重要成员,其设计寿命约9年,体现了印度自主发展航天通信技术的成果,增强了印度本土卫星通信的自主可控能力,为区域应急通信和战略通信提供支撑。

Basic Information
目录编号:
40880
目录名称:
GSAT 6
国际标识:
2015-041A
轨道中心:
EARTH
卫星名称:
GSAT 6
卫星全名:
--
卫星状态:
在轨 (已飞行3951 天)
发射日期:
2015-08-27 UTC
国别 :
印度 (IN)
星等 :
--
Orbit Information
数据来源 国际轨道数据 AOE轨道数据
星历时间 2026-06-20T17:47:59+0800
1天前
查看轨道信息
2026-06-22T01:00:00+0800
2小时前
查看轨道信息
半长轴 42164.784km 42164.84km
偏心率 0.0003242 0.0003736
轨道倾角 1.927° 1.932°
近地点辐角 0.576° 356.916°
升交点赤经 82.556° 82.521°
平近点角 55.025° 168.001°
近地点 35772.977km 35770.95km
远地点 35800.317km 35802.456km
周期 1436.100分钟 1436.102分钟
每日圈数 1.002716 1.002714
Detailed Information
使用方式:
暂无
2D Orbit Map
3D Orbit Map
Orbit Altitude Analysis Chart
Orbit Inclination Analysis Chart
Orbit Comprehensive Analysis Chart
View Comprehensive Chart